Powrót do katalogu

FENGYUN 1C DEB

AktywnySSO
NORAD 30237·DEBRIS·🇨🇳 China

Wystrzelony May 10, 1999 z Taiyuan Satellite Launch Center

Loading…

Następne Przeloty (najbliższe 24 godziny)

TLE

ŚwieżeSource: Space-Track

Epoka: Sep 14, 2026, 07:23 UTC

1 30237U 99025WW  26257.30796926  .00003875  00000-0  11377-2 0  9998
2 30237  98.8340  14.8204 0014555 203.8833 183.1926 14.44337123 16699

Śledź FENGYUN 1C DEB w czasie rzeczywistym z AllMySat

Download on the App Store